Location: Newark
(52.3500°N, 175.9667°E)
Time: 21:43:51
(UTC+00:00)

ISS - Pass Details

Date: 10 March 2021
Orbit: 418 x 422 km, 51.6° (Epoch: 16 April)

Event Time Altitude Azimuth Distance (km) Brightness Sun altitude
Exits shadow 17:09:31 22° 212° (SSW) 978 -2.3 -14.7°
Drops below altitude 10° 17:12:06 10° 161° (SSE) 1,494 -0.9 -14.3°
Sets 17:14:29 0° 146° (SE) 2,354 0.4 -13.9°
